Regional Weather Roundup
Issued by NWS Little Rock, AR

Home | Current Version | Previous Version | Graphics & Text | Print | Product List | Glossary On
Versions: 1 2 3 4 5 6 7 8 9 10 11 12 13 14 15 16 17 18 19 20 21 22 23 24 25 26 27 28 29 30 31 32 33 34 35 36 37 38 39 40 41 42 43 44 45 46 47 48 49 50
000
ASUS44 KLZK 201905
RWRLZK

WEATHER ROUNDUP FOR ARKANSAS
NATIONAL WEATHER SERVICE LITTLE ROCK AR
100 PM CST MON FEB 20 2017

NOTE: "FAIR" INDICATES FEW OR NO CLOUDS BELOW 12,000 FEET WITH NO
SIGNIFICANT WEATHER AND/OR OBSTRUCTIONS TO VISIBILITY.

ARZ001-003-010-029-202000-
NORTHWEST ARKANSAS

CITY           SKY/WX    TMP DP  RH WIND       PRES   REMARKS
FAYETTEVILLE   CLOUDY    66  58  75 S22       29.89F
FORT SMITH     CLOUDY    67  57  70 S5        29.92F
HARRISON       MOSUNNY   68  59  73 S22G29    29.94F
BENTONVILLE    CLOUDY    64  54  68 S17G24    29.91F
ROGERS         CLOUDY    65  55  70 S20       29.90F
SILOAM SPGS    CLOUDY    63  54  72 S16G25    29.89F
HIGHFILL       CLOUDY    65  56  72 S20       29.89F
SPRINGDALE     CLOUDY    66  55  68 S16       29.92F
$$

ARZ004-005-016-202000-
NORTH CENTRAL ARKANSAS

CITY           SKY/WX    TMP DP  RH WIND       PRES   REMARKS
BATESVILLE     PTSUNNY   77  61  57 S10G18    29.97F
FLIPPIN        CLOUDY    73  55  53 SW12G21   29.92F
$$

ARZ040-041-202000-
WEST CENTRAL ARKANSAS

CITY           SKY/WX    TMP DP  RH WIND       PRES   REMARKS
MENA           CLOUDY    66  63  88 SW7       29.96F
MOUNT IDA      PTSUNNY   69  56  62 VRB7      29.94F
$$

ARZ009-017-025-026-028-202000-
NORTHEAST ARKANSAS

CITY           SKY/WX    TMP DP  RH WIND       PRES   REMARKS
CORNING        FAIR      73  55  53 S18G24    30.01F
JONESBORO      CLOUDY    75  55  49 S12       30.00F
NEWPORT        CLOUDY    76  60  57 SE20      29.98
WALNUT RIDGE   CLOUDY    73  54  49 S22       29.99F
BLYTHEVILLE    MOSUNNY   74  56  53 SE8       30.03F
$$

ARZ022-023-033-042-044-202000-
CENTRAL ARKANSAS

CITY           SKY/WX    TMP DP  RH WIND       PRES   REMARKS
LITTLE ROCK    CLOUDY    76  62  62 S20G25    29.97F
N LITTLE ROCK    N/A     73  63  69 S9G20     29.97F
JACKSONVILLE   CLOUDY    74  64  69 SE9G17    29.96F
SEARCY         CLOUDY    75  64  68 S17       29.99F
HOT SPRINGS    CLOUDY    72  61  68 W13G18    29.97F
RUSSELLVILLE   PTSUNNY   71  60  68 S8        29.93F
CLINTON        PTSUNNY   75  61  60 S8G20     29.94F
$$

ARZ036-202000-
EAST ARKANSAS

CITY           SKY/WX    TMP DP  RH WIND       PRES   REMARKS
$$

ARZ050-053-066-070-073-202000-
SOUTHWEST ARKANSAS

CITY           SKY/WX    TMP DP  RH WIND       PRES   REMARKS
ARKADELPHIA    MOCLDY    71  60  68 SW12      29.97F
CAMDEN         CLOUDY    75  59  57 SW12      29.95F
TEXARKANA      CLOUDY    63  60  90 S9        29.98F
EL DORADO      PTSUNNY   75  64  68 S9G18     29.96F
DE QUEEN       CLOUDY    63  61  93 S6        29.94F
$$

ARZ056-057-069-202000-
SOUTHEAST ARKANSAS

CITY           SKY/WX    TMP DP  RH WIND       PRES   REMARKS
PINE BLUFF     CLOUDY    76  61  59 S14G21    29.98F
STUTTGART      MOSUNNY   79  59  50 S21       30.00F
MONTICELLO     PTSUNNY   73  62  68 S12G20    30.00F

$$





USA.gov is the U.S. government's official web portal to all federal, state and local government web resources and services.